Location: Fayetteville
(35.0530°N, 78.8790°W)
Time: 14:19:58
(UTC-04:00)

ISS - Visible Passes

Search period start: 21 May 2018 00:00
Search period end: 31 May 2018 00:00
Orbit: 402 x 407 km, 51.6° (Epoch: 22 May)

Date Brightness Start Highest point End Pass type
(mag) Time Alt. Az. Time Alt. Az. Time Alt. Az.
21 May -1.1 04:12:18 10° NNW 04:14:56 22° NNE 04:17:32 10° E visible
21 May -3.2 20:49:37 10° SSW 20:52:36 33° SE 20:55:35 10° ENE visible
21 May -1.1 22:26:34 10° W 22:29:07 21° NNW 22:31:43 10° NNE visible
22 May -0.5 03:20:44 10° N 03:22:32 14° NNE 03:24:19 10° ENE visible
22 May -4.0 04:56:05 10° NW 04:59:20 72° SW 05:02:34 10° SE visible
22 May -2.2 21:33:45 10° WSW 21:36:49 37° NW 21:39:53 10° NNE visible
23 May -3.0 04:03:57 10° NW 04:07:08 51° NE 04:10:19 10° ESE visible
23 May -0.3 22:20:19 10° NW 22:21:31 12° NNW 22:22:42 10° N visible
24 May -1.7 04:53:25 13° S 04:53:25 13° S 04:53:55 10° S visible
24 May -0.7 21:26:43 10° WNW 21:29:02 18° NNW 21:31:22 10° NNE visible
